Regional Weather Roundup
Issued by NWS Kansas City/Pleasant Hill, MO

Home | Current Version | Previous Version | Graphics & Text | Print | Product List | Glossary Off
Versions: 1 2 3 4 5 6 7 8 9 10 11 12 13 14 15 16 17 18 19 20 21 22 23 24 25 26 27 28 29 30 31 32 33 34 35 36 37 38 39 40 41 42 43 44 45 46 47 48 49 50

000
ASUS43 KEAX 252010
RWREAX

WEATHER ROUNDUP FOR EASTERN KANSAS AND NORTHWEST MISSOURI
NATIONAL WEATHER SERVICE KANSAS CITY/PLEASANT HILL MO
300 PM CDT SAT OCT 25 2014

KSZ040-057-103>105-MOZ028-029-037-043-252100-
...KANSAS CITY METROPOLITAN AREA...

CITY           SKY/WX    TMP DP  RH WIND       PRES   REMARKS
K.C. INTL      MOSUNNY   78  53  41 E5        30.04F
K.C. DOWNTOWN  SUNNY     80  53  39 CALM      30.02F
LEES SUMMIT    SUNNY     79  56  45 CALM      30.04F
OLATHE - IXD   SUNNY     80  59  48 S6        30.04F
OLATHE - OJC   SUNNY     80  61  52 SE6       30.03F
LAWRENCE       SUNNY     78  57  48 CALM      30.03F

$$

MOZ001>008-011>017-020>025-030>033-038>040-044>046-053-054-252100-
...NORTHERN AND CENTRAL MISSOURI...

CITY           SKY/WX    TMP DP  RH WIND       PRES   REMARKS
ST. JOSEPH     SUNNY     79  48  33 CALM      30.04F
MOSBY          CLEAR     79  46  31 CALM      30.03F
WHITEMAN AFB   SUNNY     77  64  64 NE3       30.03F
CLINTON        HAZE      81  64  57 CALM      30.03F VSB 1/2
SEDALIA        HAZE      78  62  57 CALM      30.04F VSB 3/4
WARSAW         NOT AVBL
MARSHALL       SUNNY     81  59  47 CALM      30.04F
CHILLICOTHE      N/A     80  50  34 NW3       30.04F
MOBERLY        SUNNY     82  45  26 CALM      30.04F
KIRKSVILLE     SUNNY     76  50  40 N6        30.05S

$$

MOZ041-047>049-056>058-063>065-088>090-097-252100-
...EASTERN AND SOUTHERN MISSOURI...

CITY           SKY/WX    TMP DP  RH WIND       PRES   REMARKS
ST. LOUIS INTL MOSUNNY   81  58  45 W8        30.02F
SPIRIT OF STL  SUNNY     80  55  42 N5        30.00F
COLUMBIA       SUNNY     80  58  46 VRB3      30.03F
JEFFERSON CITY SUNNY     81  56  42 VRB3      30.01F
MEXICO         SUNNY     81  57  44 W3        30.03F
HANNIBAL       SUNNY     79  41  25 NW7       30.03S
ROLLA          SUNNY     79  63  57 N5        30.03S
LEBANON        SUNNY     81  59  47 CALM      30.05S
OSAGE BEACH    SUNNY     81  61  50 N6        30.03F
SPRINGFIELD    SUNNY     82  63  52 W5        30.04F
BRANSON        SUNNY     84  63  48 NW6       30.06F
NEVADA         SUNNY     81  64  57 CALM      30.04S
JOPLIN         SUNNY     82  65  56 VRB3      30.04F
WEST PLAINS    SUNNY     81  62  52 CALM      30.04F

$$

IAZ060-094-KSZ022-034>040-054-083-096-NEZ052-066-093-252100-
...KANSAS...SOUTHEAST NEBRASKA AND IOWA...

CITY           SKY/WX    TMP DP  RH WIND       PRES   REMARKS
TOPEKA         SUNNY     81  59  47 SE8       30.03F
MANHATTAN      SUNNY     83  65  54 NE7       30.00F
EMPORIA        SUNNY     85  60  42 S6        30.01F
CHANUTE        SUNNY     84  65  52 S5        30.02F
WICHITA        SUNNY     90  55  30 S13       30.01F
OMAHA          SUNNY     73  42  32 CALM      30.08F
LINCOLN        SUNNY     74  45  35 NE10      30.08F
FALLS CITY     SUNNY     78  47  33 NE6       30.04F
LAMONI         SUNNY     74  46  36 E5        30.06F
DES MOINES     SUNNY     72  38  29 N6        30.07F

$$




USA.gov is the U.S. government's official web portal to all federal, state and local government web resources and services.